Date String (YYYY-MM-DD hh:mm:ss) UTC,Instrument flags,absolute air pressure of the measurement (hPa),sample flow rate (lpm),inlet stack bypass flow (lpm),air temperature of the measurement (°C),ambient temperature measured by the external sensor (°C),aerosol sample conditioner tube jacket temperature (°C),OPC LED temperature (°C),internal box temperature (°C),relative humidity of the measurement (%),span deviation,mass concentration of particles derived from Lorenz-Mie calculation of OPC scattering (μg/m³),mass concentration of particles derived from Lorenz-Mie calculation of OPC scattering (μg/m³),mass concentration of particles derived from Lorenz-Mie calculation of OPC scattering (μg/m³)
DateTimeUTC,F1_M11,P_M11,Q1_M11,Q2_M11,T1_M11,T2_M11,T3_M11,T4_M11,T5_M11,U1_M11,ZSPAN_M11,X0_M11,X2_M11,X1_M11
2023-07-12 22:00:00,SystemResetWarning,0830.9,5.01,000.00,028.6,026.4,000.0,036.9,030.3,20.1,0000.0,0017.98,0006.17,0004.75
2023-07-12 22:01:00,SystemResetWarning,0830.9,4.99,000.00,028.7,026.9,000.0,037.0,030.4,20.1,0000.0,0017.68,0006.20,0004.73
2023-07-12 22:02:00,SystemResetWarning,0830.9,5.00,000.00,028.7,027.2,000.0,037.0,030.5,20.8,0000.0,0017.25,0006.10,0004.72
2023-07-12 22:03:00,SystemResetWarning,0830.9,4.99,000.00,028.8,027.2,000.0,037.0,030.5,20.0,0000.0,0017.18,0006.00,0004.70
2023-07-12 22:04:00,SystemResetWarning,0830.9,5.00,000.00,028.8,025.7,000.0,036.9,030.2,20.7,0000.0,0016.96,0005.92,0004.69
2023-07-12 22:05:00,SystemResetWarning,0830.9,5.00,000.00,028.7,024.7,000.0,036.8,030.1,21.0,0000.0,0018.63,0005.90,0004.68
2023-07-12 22:06:00,SystemResetWarning,0830.9,5.02,000.00,028.6,025.0,000.0,036.8,030.0,23.0,0000.0,0018.95,0005.88,0004.65
2023-07-12 22:07:00,SystemResetWarning,0831.0,5.00,000.00,028.6,025.4,000.0,036.8,030.0,24.2,0000.0,0018.36,0005.89,0004.64
2023-07-12 22:08:00,SystemResetWarning,0830.9,5.00,000.00,028.6,025.9,000.0,036.9,030.1,24.6,0000.0,0018.56,0005.99,0004.64
2023-07-12 22:09:00,SystemResetWarning,0830.9,5.00,000.00,028.6,026.4,000.0,036.9,030.2,24.6,0000.0,0019.76,0006.05,0004.64
2023-07-12 22:10:00,SystemResetWarning,0831.0,5.00,000.00,028.6,026.8,000.0,036.9,030.3,23.1,0000.0,0019.88,0006.05,0004.63
2023-07-12 22:11:00,SystemResetWarning,0831.0,5.00,000.00,028.7,027.2,000.0,037.0,030.4,21.6,0000.0,0020.46,0006.05,0004.62
2023-07-12 22:12:00,SystemResetWarning,0831.0,5.00,000.00,028.7,027.5,000.0,037.0,030.5,21.5,0000.0,0019.91,0006.01,0004.63
2023-07-12 22:13:00,SystemResetWarning,0831.2,5.00,000.00,028.8,026.8,000.0,036.9,030.5,21.6,0000.0,0020.10,0006.03,0004.63
2023-07-12 22:14:00,SystemResetWarning,0831.1,4.99,000.00,028.7,025.1,000.0,036.9,030.2,20.8,0000.0,0021.46,0006.09,0004.64
2023-07-12 22:15:00,SystemResetWarning,0831.1,5.01,000.00,028.7,024.8,000.0,036.8,030.1,20.2,0000.0,0022.14,0006.17,0004.65
2023-07-12 22:16:00,SystemResetWarning,0831.1,5.00,000.00,028.6,025.2,000.0,036.8,030.0,20.6,0000.0,0021.89,0006.23,0004.65
2023-07-12 22:17:00,SystemResetWarning,0831.2,5.00,000.00,028.6,025.6,000.0,036.9,030.0,19.8,0000.0,0022.63,0006.26,0004.66
2023-07-12 22:18:00,SystemResetWarning,0831.1,5.00,000.00,028.6,026.1,000.0,036.9,030.1,20.2,0000.0,0024.06,0006.26,0004.66
2023-07-12 22:19:00,SystemResetWarning,0831.1,5.00,000.00,028.6,026.5,000.0,036.9,030.2,20.8,0000.0,0024.01,0006.16,0004.64
2023-07-12 22:20:00,SystemResetWarning,0831.1,5.00,000.00,028.7,026.9,000.0,037.0,030.4,21.3,0000.0,0022.61,0006.10,0004.64
2023-07-12 22:21:00,SystemResetWarning,0831.2,5.00,000.00,028.7,027.3,000.0,037.0,030.5,21.1,0000.0,0023.90,0006.15,0004.64
2023-07-12 22:22:00,SystemResetWarning,0831.1,5.00,000.00,028.8,027.4,000.0,037.0,030.5,20.6,0000.0,0024.57,0006.22,0004.65
2023-07-12 22:23:00,SystemResetWarning,0831.2,4.98,000.00,028.8,026.0,000.0,036.9,030.3,20.8,0000.0,0025.09,0006.25,0004.65
2023-07-12 22:24:00,SystemResetWarning,0831.1,5.01,000.00,028.7,024.7,000.0,036.8,030.1,21.5,0000.0,0025.45,0006.22,0004.65
2023-07-12 22:25:00,SystemResetWarning,0831.1,5.01,000.00,028.6,024.9,000.0,036.8,030.0,21.7,0000.0,0024.74,0006.21,0004.64
2023-07-12 22:26:00,SystemResetWarning,0831.1,4.99,000.00,028.6,025.3,000.0,036.8,030.0,22.3,0000.0,0024.59,0006.19,0004.63
2023-07-12 22:27:00,SystemResetWarning,0831.1,5.00,000.00,028.6,025.7,000.0,036.9,030.0,22.3,0000.0,0024.50,0006.20,0004.63
2023-07-12 22:28:00,SystemResetWarning,0831.1,5.01,000.00,028.6,026.2,000.0,036.9,030.2,22.8,0000.0,0023.85,0006.17,0004.62
2023-07-12 22:29:00,SystemResetWarning,0831.1,5.00,000.00,028.6,026.7,000.0,036.9,030.3,23.3,0000.0,0022.88,0006.12,0004.62
2023-07-12 22:30:00,SystemResetWarning,0831.2,4.99,000.00,028.7,027.0,000.0,037.0,030.4,23.0,0000.0,0022.63,0006.17,0004.62
2023-07-12 22:31:00,SystemResetWarning,0831.2,5.00,000.00,028.7,027.4,000.0,037.0,030.5,23.7,0000.0,0023.29,0006.18,0004.60
2023-07-12 22:32:00,SystemResetWarning,0831.2,4.99,000.00,028.8,027.1,000.0,037.0,030.5,23.8,0000.0,0022.97,0006.17,0004.60
2023-07-12 22:33:00,SystemResetWarning,0831.2,5.00,000.00,028.7,025.4,000.0,036.9,030.2,25.1,0000.0,0021.32,0006.13,0004.59
2023-07-12 22:34:00,SystemResetWarning,0831.2,5.00,000.00,028.6,024.7,000.0,036.8,030.0,25.7,0000.0,0021.94,0006.19,0004.59
2023-07-12 22:35:00,SystemResetWarning,0831.2,5.01,000.00,028.6,025.1,000.0,036.8,029.9,24.9,0000.0,0023.06,0006.33,0004.59
2023-07-12 22:36:00,SystemResetWarning,0831.2,5.01,000.00,028.5,025.4,000.0,036.8,029.9,25.3,0000.0,0025.80,0006.51,0004.60
2023-07-12 22:37:00,SystemResetWarning,0831.2,4.99,000.00,028.5,025.9,000.0,036.9,030.1,25.8,0000.0,0027.35,0006.72,0004.62
2023-07-12 22:38:00,SystemResetWarning,0831.2,5.00,000.00,028.6,026.4,000.0,036.9,030.2,24.9,0000.0,0029.69,0006.97,0004.65
2023-07-12 22:39:00,SystemResetWarning,0831.1,5.00,000.00,028.6,026.8,000.0,036.9,030.3,24.5,0000.0,0032.51,0007.17,0004.66
2023-07-12 22:40:00,SystemResetWarning,0831.1,5.00,000.00,028.7,027.2,000.0,037.0,030.4,25.0,0000.0,0035.70,0007.33,0004.68
2023-07-12 22:41:00,SystemResetWarning,0831.0,4.99,000.00,028.7,027.5,000.0,037.0,030.5,25.7,0000.0,0040.86,0007.54,0004.71
2023-07-12 22:42:00,SystemResetWarning,0830.9,5.00,000.00,028.8,027.3,000.0,037.0,030.5,26.3,0000.0,0046.19,0007.78,0004.73
2023-07-12 22:43:00,SystemResetWarning,0830.9,5.00,000.00,028.8,025.7,000.0,036.9,030.3,27.9,0000.0,0048.78,0007.96,0004.73
2023-07-12 22:44:00,SystemResetWarning,0830.9,5.00,000.00,028.7,024.7,000.0,036.8,030.1,28.3,0000.0,0051.30,0008.15,0004.74
2023-07-12 22:45:00,SystemResetWarning,0830.8,5.01,000.00,028.6,025.0,000.0,036.8,030.0,27.4,0000.0,0053.11,0008.28,0004.76
2023-07-12 22:46:00,SystemResetWarning,0830.9,5.00,000.00,028.6,025.4,000.0,036.8,030.0,25.7,0000.0,0054.14,0008.21,0004.74
2023-07-12 22:47:00,SystemResetWarning,0830.8,5.00,000.00,028.6,025.9,000.0,036.9,030.1,26.4,0000.0,0053.38,0008.11,0004.74
2023-07-12 22:48:00,SystemResetWarning,0830.9,5.01,000.00,028.6,026.3,000.0,036.9,030.2,27.1,0000.1,0052.69,0007.99,0004.73
2023-07-12 22:49:00,SystemResetWarning,0830.8,4.99,000.00,028.6,026.8,000.0,037.0,030.3,26.8,0000.5,0050.80,0007.80,0004.70
2023-07-12 22:50:00,SystemResetWarning,0830.9,5.00,000.00,028.7,027.1,000.0,037.0,030.4,25.5,0000.0,0048.68,0007.65,0004.68
2023-07-12 22:51:00,SystemResetWarning,0830.8,5.00,000.00,028.7,027.4,000.0,037.0,030.5,25.7,0000.0,0045.80,0007.63,0004.68
2023-07-12 22:52:00,SystemResetWarning,0830.8,5.00,000.00,028.8,027.4,000.0,037.0,030.6,26.2,0000.0,0041.97,0007.54,0004.65
2023-07-12 22:53:00,SystemResetWarning,0830.8,4.99,000.00,028.8,025.9,000.0,036.9,030.4,26.8,0000.0,0038.61,0007.40,0004.64
2023-07-12 22:54:00,SystemResetWarning,0830.8,5.00,000.00,028.7,024.8,000.0,036.8,030.1,28.9,0000.0,0034.82,0007.26,0004.63
2023-07-12 22:55:00,SystemResetWarning,0830.8,5.02,000.00,028.6,024.9,000.0,036.8,030.0,29.5,0000.0,0032.75,0007.12,0004.63
2023-07-12 22:56:00,SystemResetWarning,0830.8,5.01,000.00,028.6,025.3,000.0,036.9,030.0,28.7,0000.0,0030.54,0007.01,0004.61
2023-07-12 22:57:00,SystemResetWarning,0830.9,5.00,000.00,028.6,025.8,000.0,036.9,030.1,28.6,0000.0,0030.07,0007.08,0004.64
2023-07-12 22:58:00,SystemResetWarning,0830.8,5.00,000.00,028.6,026.3,000.0,036.9,030.2,27.3,0000.0,0027.90,0007.07,0004.64
2023-07-12 22:59:00,SystemResetWarning,0830.8,4.99,000.00,028.6,026.7,000.0,037.0,030.3,26.5,0000.0,0026.65,0007.03,0004.65
